Time,TemperatureF,DewpointF,PressureIn,WindDirection,WindDirectionDegrees,WindSpeedMPH,WindSpeedGustMPH,Humidity,HourlyPrecipIn,Conditions,Clouds,dailyrainin,SoftwareType,DateUTC
2013-01-19 00:00:00,33.5,23.7,30.06,SW,219,4.0,4.0,67,0.00,,,0.00,Wunderground v.1.15,2013-01-19 05:00:00,
2013-01-19 00:02:00,33.5,23.7,30.05,SW,224,5.0,6.0,67,0.00,,,0.00,Wunderground v.1.15,2013-01-19 05:02:00,
2013-01-19 00:03:00,33.5,23.7,30.05,SW,220,8.0,10.0,67,0.00,,,0.00,Wunderground v.1.15,2013-01-19 05:03:00,
2013-01-19 00:08:00,33.5,23.7,30.05,SW,218,4.0,11.0,67,0.00,,,0.00,Wunderground v.1.15,2013-01-19 05:08:00,
2013-01-19 00:13:00,33.4,24.0,30.05,SSE,154,7.0,9.0,68,0.00,,,0.00,Wunderground v.1.15,2013-01-19 05:13:00,
2013-01-19 00:18:00,33.3,23.9,30.04,South,182,1.0,9.0,68,0.00,,,0.00,Wunderground v.1.15,2013-01-19 05:18:00,
2013-01-19 00:23:00,33.3,23.9,30.04,SW,228,8.0,8.0,68,0.00,,,0.00,Wunderground v.1.15,2013-01-19 05:23:00,
2013-01-19 00:28:00,33.3,23.9,30.04,SSW,200,5.0,9.0,68,0.00,,,0.00,Wunderground v.1.15,2013-01-19 05:28:00,
2013-01-19 00:33:00,33.2,24.1,30.04,South,182,3.0,9.0,69,0.00,,,0.00,Wunderground v.1.15,2013-01-19 05:33:00,
2013-01-19 00:38:00,33.3,24.2,30.04,SSW,213,3.0,9.0,69,0.00,,,0.00,Wunderground v.1.15,2013-01-19 05:38:00,
2013-01-19 00:43:00,33.4,24.3,30.03,SSE,148,4.0,8.0,69,0.00,,,0.00,Wunderground v.1.15,2013-01-19 05:43:00,
2013-01-19 00:48:00,33.4,24.3,30.03,South,182,5.0,8.0,69,0.00,,,0.00,Wunderground v.1.15,2013-01-19 05:48:00,
2013-01-19 00:53:00,33.4,24.3,30.03,SSW,211,3.0,7.0,69,0.00,,,0.00,Wunderground v.1.15,2013-01-19 05:53:00,
2013-01-19 00:58:00,33.5,24.4,30.03,SSE,156,7.0,10.0,69,0.00,,,0.00,Wunderground v.1.15,2013-01-19 05:58:00,
2013-01-19 01:03:00,33.5,24.4,30.03,SE,144,2.0,9.0,69,0.00,,,0.00,Wunderground v.1.15,2013-01-19 06:03:00,
2013-01-19 01:08:00,33.7,24.3,30.03,SW,221,7.0,9.0,68,0.00,,,0.00,Wunderground v.1.15,2013-01-19 06:08:00,
2013-01-19 01:13:00,33.8,24.4,30.03,WSW,254,6.0,8.0,68,0.00,,,0.00,Wunderground v.1.15,2013-01-19 06:13:00,
2013-01-19 01:18:00,33.9,24.4,30.02,South,180,3.0,12.0,68,0.00,,,0.00,Wunderground v.1.15,2013-01-19 06:18:00,
2013-01-19 01:23:00,33.9,24.4,30.02,SW,229,5.0,10.0,68,0.00,,,0.00,Wunderground v.1.15,2013-01-19 06:23:00,
2013-01-19 01:28:00,34.0,24.5,30.02,SW,232,3.0,10.0,68,0.00,,,0.00,Wunderground v.1.15,2013-01-19 06:28:00,
2013-01-19 01:33:00,34.0,24.5,30.02,SSE,161,4.0,10.0,68,0.00,,,0.00,Wunderground v.1.15,2013-01-19 06:33:00,
2013-01-19 01:38:00,34.2,24.7,30.02,SW,219,6.0,10.0,68,0.00,,,0.00,Wunderground v.1.15,2013-01-19 06:38:00,
2013-01-19 01:43:00,34.3,24.8,30.02,SSE,148,7.0,7.0,68,0.00,,,0.00,Wunderground v.1.15,2013-01-19 06:43:00,
2013-01-19 01:48:00,34.3,24.8,30.01,SW,234,5.0,8.0,68,0.00,,,0.00,Wunderground v.1.15,2013-01-19 06:48:00,
2013-01-19 01:53:00,34.3,24.8,30.02,SSW,192,2.0,7.0,68,0.00,,,0.00,Wunderground v.1.15,2013-01-19 06:53:00,
2013-01-19 01:58:00,34.3,24.8,30.02,SSW,192,5.0,11.0,68,0.00,,,0.00,Wunderground v.1.15,2013-01-19 06:58:00,
2013-01-19 02:03:00,34.4,24.9,30.02,South,170,2.0,10.0,68,0.00,,,0.00,Wunderground v.1.15,2013-01-19 07:03:00,
2013-01-19 02:08:00,34.4,24.9,30.01,WSW,253,5.0,13.0,68,0.00,,,0.00,Wunderground v.1.15,2013-01-19 07:08:00,
2013-01-19 02:13:00,34.5,25.0,30.01,SW,232,5.0,8.0,68,0.00,,,0.00,Wunderground v.1.15,2013-01-19 07:13:00,
2013-01-19 02:18:00,34.5,25.0,30.01,SW,222,5.0,9.0,68,0.00,,,0.00,Wunderground v.1.15,2013-01-19 07:18:00,
2013-01-19 02:23:00,34.5,25.0,30.02,SSW,207,4.0,6.0,68,0.00,,,0.00,Wunderground v.1.15,2013-01-19 07:23:00,
2013-01-19 02:28:00,34.6,25.1,30.01,South,178,3.0,10.0,68,0.00,,,0.00,Wunderground v.1.15,2013-01-19 07:28:00,
2013-01-19 02:33:00,34.7,24.9,30.02,South,181,3.0,10.0,67,0.00,,,0.00,Wunderground v.1.15,2013-01-19 07:33:00,
2013-01-19 02:38:00,34.7,25.2,30.01,South,191,4.0,10.0,68,0.00,,,0.00,Wunderground v.1.15,2013-01-19 07:38:00,
2013-01-19 02:43:00,34.7,25.2,30.01,South,178,3.0,9.0,68,0.00,,,0.00,Wunderground v.1.15,2013-01-19 07:43:00,
2013-01-19 02:48:00,34.8,25.3,30.01,SSE,149,3.0,9.0,68,0.00,,,0.00,Wunderground v.1.15,2013-01-19 07:48:00,
2013-01-19 02:53:00,34.7,25.2,30.02,SW,225,5.0,5.0,68,0.00,,,0.00,Wunderground v.1.15,2013-01-19 07:53:00,
2013-01-19 02:58:00,34.6,25.1,30.01,SSE,168,4.0,9.0,68,0.00,,,0.00,Wunderground v.1.15,2013-01-19 07:58:00,
2013-01-19 03:03:00,34.4,25.3,30.01,SSW,200,2.0,5.0,69,0.00,,,0.00,Wunderground v.1.15,2013-01-19 08:03:00,
2013-01-19 03:08:00,34.2,25.1,30.01,SSE,167,1.0,8.0,69,0.00,,,0.00,Wunderground v.1.15,2013-01-19 08:08:00,
2013-01-19 03:13:00,34.2,25.1,30.01,SW,227,2.0,6.0,69,0.00,,,0.00,Wunderground v.1.15,2013-01-19 08:13:00,
2013-01-19 03:18:00,34.2,25.1,30.01,SW,236,3.0,7.0,69,0.00,,,0.00,Wunderground v.1.15,2013-01-19 08:18:00,
2013-01-19 03:23:00,34.3,25.2,30.01,SSE,162,5.0,7.0,69,0.00,,,0.00,Wunderground v.1.15,2013-01-19 08:23:00,
2013-01-19 03:28:00,34.3,25.2,30.01,SW,222,1.0,7.0,69,0.00,,,0.00,Wunderground v.1.15,2013-01-19 08:28:00,
2013-01-19 03:33:00,34.3,25.5,30.01,SSW,207,3.0,7.0,70,0.00,,,0.00,Wunderground v.1.15,2013-01-19 08:33:00,
2013-01-19 03:38:00,34.4,25.6,30.01,SW,220,7.0,7.0,70,0.00,,,0.00,Wunderground v.1.15,2013-01-19 08:38:00,
2013-01-19 03:43:00,34.6,25.5,30.01,SSW,196,2.0,8.0,69,0.00,,,0.00,Wunderground v.1.15,2013-01-19 08:43:00,
2013-01-19 03:48:00,34.6,25.5,30.00,South,170,4.0,8.0,69,0.00,,,0.00,Wunderground v.1.15,2013-01-19 08:48:00,
2013-01-19 03:53:00,34.7,25.6,30.00,SSW,210,5.0,9.0,69,0.00,,,0.00,Wunderground v.1.15,2013-01-19 08:53:00,
2013-01-19 03:58:00,34.8,25.7,30.00,SW,221,4.0,10.0,69,0.00,,,0.00,Wunderground v.1.15,2013-01-19 08:58:00,
2013-01-19 04:03:00,34.7,25.6,30.00,SSW,205,2.0,7.0,69,0.00,,,0.00,Wunderground v.1.15,2013-01-19 09:03:00,
2013-01-19 04:08:00,34.7,25.6,30.00,South,184,1.0,7.0,69,0.00,,,0.00,Wunderground v.1.15,2013-01-19 09:08:00,
2013-01-19 04:13:00,34.5,25.7,30.00,SSE,147,1.0,6.0,70,0.00,,,0.00,Wunderground v.1.15,2013-01-19 09:13:00,
2013-01-19 04:18:00,34.4,25.6,29.99,SW,228,5.0,6.0,70,0.00,,,0.00,Wunderground v.1.15,2013-01-19 09:18:00,
2013-01-19 04:23:00,34.4,25.6,29.99,SW,219,1.0,8.0,70,0.00,,,0.00,Wunderground v.1.15,2013-01-19 09:23:00,
2013-01-19 04:28:00,34.4,25.6,29.99,SW,219,2.0,8.0,70,0.00,,,0.00,Wunderground v.1.15,2013-01-19 09:28:00,
2013-01-19 04:33:00,34.3,25.5,29.99,South,183,3.0,6.0,70,0.00,,,0.00,Wunderground v.1.15,2013-01-19 09:33:00,
2013-01-19 04:38:00,34.3,25.9,29.99,South,180,1.0,6.0,71,0.00,,,0.00,Wunderground v.1.15,2013-01-19 09:38:00,
2013-01-19 04:43:00,34.2,25.8,29.99,SW,215,1.0,5.0,71,0.00,,,0.00,Wunderground v.1.15,2013-01-19 09:43:00,
2013-01-19 04:48:00,34.1,25.7,29.99,SSW,211,1.0,7.0,71,0.00,,,0.00,Wunderground v.1.15,2013-01-19 09:48:00,
2013-01-19 04:53:00,34.1,25.7,29.99,SSW,209,5.0,7.0,71,0.00,,,0.00,Wunderground v.1.15,2013-01-19 09:53:00,
2013-01-19 04:58:00,34.1,25.7,29.99,SSW,200,1.0,7.0,71,0.00,,,0.00,Wunderground v.1.15,2013-01-19 09:58:00,
2013-01-19 05:03:00,33.9,25.8,29.99,South,185,4.0,4.0,72,0.00,,,0.00,Wunderground v.1.15,2013-01-19 10:03:00,
2013-01-19 05:08:00,33.8,25.7,29.99,South,186,1.0,6.0,72,0.00,,,0.00,Wunderground v.1.15,2013-01-19 10:08:00,
2013-01-19 05:13:00,33.8,25.7,29.99,SSW,205,2.0,4.0,72,0.00,,,0.00,Wunderground v.1.15,2013-01-19 10:13:00,
2013-01-19 05:18:00,33.7,26.0,29.99,South,190,2.0,5.0,73,0.00,,,0.00,Wunderground v.1.15,2013-01-19 10:18:00,
2013-01-19 05:23:00,33.7,25.6,29.99,SSW,200,1.0,5.0,72,0.00,,,0.00,Wunderground v.1.15,2013-01-19 10:23:00,
2013-01-19 05:28:00,33.6,25.9,29.99,South,180,1.0,5.0,73,0.00,,,0.00,Wunderground v.1.15,2013-01-19 10:28:00,
2013-01-19 05:33:00,33.5,25.8,29.99,SW,219,1.0,6.0,73,0.00,,,0.00,Wunderground v.1.15,2013-01-19 10:33:00,
2013-01-19 05:38:00,33.5,25.8,29.99,South,188,1.0,6.0,73,0.00,,,0.00,Wunderground v.1.15,2013-01-19 10:38:00,
2013-01-19 05:43:00,33.4,26.0,29.99,South,171,4.0,5.0,74,0.00,,,0.00,Wunderground v.1.15,2013-01-19 10:43:00,
2013-01-19 05:48:00,33.5,26.1,29.99,SSW,207,2.0,5.0,74,0.00,,,0.00,Wunderground v.1.15,2013-01-19 10:48:00,
2013-01-19 05:53:00,33.6,26.2,29.99,South,179,4.0,5.0,74,0.00,,,0.00,Wunderground v.1.15,2013-01-19 10:53:00,
2013-01-19 05:58:00,33.8,26.4,29.99,South,186,1.0,6.0,74,0.00,,,0.00,Wunderground v.1.15,2013-01-19 10:58:00,
2013-01-19 06:03:00,33.8,26.1,29.99,SSW,196,3.0,4.0,73,0.00,,,0.00,Wunderground v.1.15,2013-01-19 11:03:00,
2013-01-19 06:08:00,33.9,26.5,29.99,SSW,198,2.0,4.0,74,0.00,,,0.00,Wunderground v.1.15,2013-01-19 11:08:00,
2013-01-19 06:13:00,33.9,26.5,29.99,SSE,158,3.0,5.0,74,0.00,,,0.00,Wunderground v.1.15,2013-01-19 11:13:00,
2013-01-19 07:47:00,35.5,27.7,30.00,South,171,3.0,6.0,73,0.00,,,0.00,Wunderground v.1.15,2013-01-19 12:47:00,
2013-01-19 07:48:00,35.4,27.6,30.00,South,171,1.0,6.0,73,0.00,,,0.00,Wunderground v.1.15,2013-01-19 12:48:00,
2013-01-19 07:53:00,35.5,27.7,30.00,SSE,163,2.0,4.0,73,0.00,,,0.00,Wunderground v.1.15,2013-01-19 12:53:00,
2013-01-19 07:58:00,35.5,27.7,30.00,SW,219,4.0,5.0,73,0.00,,,0.00,Wunderground v.1.15,2013-01-19 12:58:00,
2013-01-19 08:03:00,35.5,27.7,30.00,SW,234,3.0,5.0,73,0.00,,,0.00,Wunderground v.1.15,2013-01-19 13:03:00,
2013-01-19 08:08:00,35.6,27.8,30.00,SE,143,3.0,7.0,73,0.00,,,0.00,Wunderground v.1.15,2013-01-19 13:08:00,
2013-01-19 08:13:00,35.7,27.9,30.00,SW,227,4.0,6.0,73,0.00,,,0.00,Wunderground v.1.15,2013-01-19 13:13:00,
2013-01-19 08:18:00,35.7,27.9,30.00,SW,235,1.0,6.0,73,0.00,,,0.00,Wunderground v.1.15,2013-01-19 13:18:00,
2013-01-19 08:23:00,35.7,27.9,30.00,SW,214,1.0,7.0,73,0.00,,,0.00,Wunderground v.1.15,2013-01-19 13:23:00,
2013-01-19 08:28:00,35.7,27.9,30.00,South,174,1.0,7.0,73,0.00,,,0.00,Wunderground v.1.15,2013-01-19 13:28:00,
2013-01-19 08:33:00,35.6,27.8,30.00,SW,216,3.0,5.0,73,0.00,,,0.00,Wunderground v.1.15,2013-01-19 13:33:00,
2013-01-19 08:38:00,35.6,28.1,30.00,WSW,239,4.0,5.0,74,0.00,,,0.00,Wunderground v.1.15,2013-01-19 13:38:00,
2013-01-19 08:43:00,35.7,28.2,30.00,South,178,3.0,5.0,74,0.00,,,0.00,Wunderground v.1.15,2013-01-19 13:43:00,
2013-01-19 08:48:00,35.8,28.3,30.00,South,191,3.0,5.0,74,0.00,,,0.00,Wunderground v.1.15,2013-01-19 13:48:00,
2013-01-19 08:53:00,35.9,28.1,30.00,SW,225,3.0,9.0,73,0.00,,,0.00,Wunderground v.1.15,2013-01-19 13:53:00,
2013-01-19 08:58:00,36.1,28.3,30.00,SW,231,6.0,9.0,73,0.00,,,0.00,Wunderground v.1.15,2013-01-19 13:58:00,
2013-01-19 09:03:00,36.2,28.4,30.00,South,175,1.0,4.0,73,0.00,,,0.00,Wunderground v.1.15,2013-01-19 14:03:00,
2013-01-19 09:08:00,36.2,28.4,30.00,SW,217,2.0,6.0,73,0.00,,,0.00,Wunderground v.1.15,2013-01-19 14:08:00,
2013-01-19 09:13:00,36.5,28.7,30.00,SW,232,3.0,8.0,73,0.00,,,0.00,Wunderground v.1.15,2013-01-19 14:13:00,
2013-01-19 09:18:00,36.6,28.4,30.01,SW,214,2.0,8.0,72,0.00,,,0.00,Wunderground v.1.15,2013-01-19 14:18:00,
2013-01-19 09:23:00,36.8,28.6,30.01,SSW,204,1.0,6.0,72,0.00,,,0.00,Wunderground v.1.15,2013-01-19 14:23:00,
2013-01-19 09:28:00,36.9,28.7,30.01,SW,232,6.0,10.0,72,0.00,,,0.00,Wunderground v.1.15,2013-01-19 14:28:00,
2013-01-19 09:33:00,37.1,28.6,30.01,SW,225,1.0,7.0,71,0.00,,,0.00,Wunderground v.1.15,2013-01-19 14:33:00,
2013-01-19 09:38:00,37.3,28.8,30.01,SW,221,2.0,7.0,71,0.00,,,0.00,Wunderground v.1.15,2013-01-19 14:38:00,
2013-01-19 09:43:00,37.5,28.9,30.01,WSW,250,5.0,9.0,71,0.00,,,0.00,Wunderground v.1.15,2013-01-19 14:43:00,
2013-01-19 09:48:00,37.7,29.1,30.01,SSW,209,4.0,9.0,71,0.00,,,0.00,Wunderground v.1.15,2013-01-19 14:48:00,
2013-01-19 09:53:00,37.8,29.2,30.01,SW,234,5.0,6.0,71,0.00,,,0.00,Wunderground v.1.15,2013-01-19 14:53:00,
2013-01-19 09:58:00,38.0,29.4,30.01,South,170,2.0,9.0,71,0.00,,,0.00,Wunderground v.1.15,2013-01-19 14:58:00,
2013-01-19 10:03:00,38.1,29.2,30.00,SW,229,1.0,7.0,70,0.00,,,0.00,Wunderground v.1.15,2013-01-19 15:03:00,
2013-01-19 10:08:00,38.3,29.4,30.00,SW,225,4.0,9.0,70,0.00,,,0.00,Wunderground v.1.15,2013-01-19 15:08:00,
2013-01-19 10:13:00,38.4,29.5,30.00,SW,225,1.0,9.0,70,0.00,,,0.00,Wunderground v.1.15,2013-01-19 15:13:00,
2013-01-19 10:18:00,38.6,29.3,30.00,SSW,200,6.0,9.0,69,0.00,,,0.00,Wunderground v.1.15,2013-01-19 15:18:00,
2013-01-19 10:23:00,38.7,29.4,30.00,SW,225,4.0,8.0,69,0.00,,,0.00,Wunderground v.1.15,2013-01-19 15:23:00,
2013-01-19 10:28:00,38.9,29.6,30.00,WSW,242,6.0,8.0,69,0.00,,,0.00,Wunderground v.1.15,2013-01-19 15:28:00,
2013-01-19 10:33:00,39.2,29.9,30.00,SW,221,3.0,6.0,69,0.00,,,0.00,Wunderground v.1.15,2013-01-19 15:33:00,
2013-01-19 10:38:00,39.5,29.8,30.00,WSW,252,5.0,12.0,68,0.00,,,0.00,Wunderground v.1.15,2013-01-19 15:38:00,
2013-01-19 10:43:00,39.7,30.0,30.00,SSW,200,5.0,8.0,68,0.00,,,0.00,Wunderground v.1.15,2013-01-19 15:43:00,
2013-01-19 10:48:00,39.8,30.1,30.00,SE,138,3.0,8.0,68,0.00,,,0.00,Wunderground v.1.15,2013-01-19 15:48:00,
2013-01-19 10:53:00,40.2,30.1,30.00,SW,215,4.0,7.0,67,0.00,,,0.00,Wunderground v.1.15,2013-01-19 15:53:00,
2013-01-19 10:58:00,40.4,30.3,29.99,WSW,252,4.0,10.0,67,0.00,,,0.00,Wunderground v.1.15,2013-01-19 15:58:00,
2013-01-19 11:03:00,40.5,30.4,29.99,SW,223,2.0,5.0,67,0.00,,,0.00,Wunderground v.1.15,2013-01-19 16:03:00,
2013-01-19 11:08:00,40.7,30.6,29.99,SSE,160,4.0,7.0,67,0.00,,,0.00,Wunderground v.1.15,2013-01-19 16:08:00,
2013-01-19 11:13:00,41.4,30.9,29.98,WSW,246,7.0,9.0,66,0.00,,,0.00,Wunderground v.1.15,2013-01-19 16:13:00,
2013-01-19 11:18:00,42.0,31.1,29.98,SW,227,5.0,12.0,65,0.00,,,0.00,Wunderground v.1.15,2013-01-19 16:18:00,
2013-01-19 11:23:00,42.3,30.6,29.98,WSW,258,6.0,8.0,63,0.00,,,0.00,Wunderground v.1.15,2013-01-19 16:23:00,
2013-01-19 11:28:00,42.1,30.8,29.97,South,171,3.0,8.0,64,0.00,,,0.00,Wunderground v.1.15,2013-01-19 16:28:00,
2013-01-19 11:33:00,41.9,30.6,29.97,SW,236,8.0,8.0,64,0.00,,,0.00,Wunderground v.1.15,2013-01-19 16:33:00,
2013-01-19 11:38:00,41.8,30.5,29.97,West,263,4.0,10.0,64,0.00,,,0.00,Wunderground v.1.15,2013-01-19 16:38:00,
2013-01-19 11:43:00,41.8,30.5,29.96,SW,221,6.0,7.0,64,0.00,,,0.00,Wunderground v.1.15,2013-01-19 16:43:00,
2013-01-19 11:48:00,41.9,31.0,29.96,SW,222,2.0,7.0,65,0.00,,,0.00,Wunderground v.1.15,2013-01-19 16:48:00,
2013-01-19 11:53:00,41.9,30.6,29.95,SSW,201,2.0,9.0,64,0.00,,,0.00,Wunderground v.1.15,2013-01-19 16:53:00,
2013-01-19 11:58:00,42.0,30.7,29.95,ENE,76,1.0,9.0,64,0.00,,,0.00,Wunderground v.1.15,2013-01-19 16:58:00,
2013-01-19 12:03:00,42.0,30.7,29.94,SW,227,3.0,8.0,64,0.00,,,0.00,Wunderground v.1.15,2013-01-19 17:03:00,
2013-01-19 12:08:00,42.1,30.8,29.94,SSW,210,6.0,9.0,64,0.00,,,0.00,Wunderground v.1.15,2013-01-19 17:08:00,
2013-01-19 12:13:00,42.1,30.8,29.94,WSW,242,8.0,8.0,64,0.00,,,0.00,Wunderground v.1.15,2013-01-19 17:13:00,
2013-01-19 12:19:00,42.1,31.2,29.93,SW,231,5.0,10.0,65,0.00,,,0.00,Wunderground v.1.15,2013-01-19 17:19:00,
2013-01-19 12:24:00,42.2,31.3,29.93,SW,229,5.0,6.0,65,0.00,,,0.00,Wunderground v.1.15,2013-01-19 17:24:00,
2013-01-19 12:29:00,42.2,30.9,29.92,SW,224,3.0,8.0,64,0.00,,,0.00,Wunderground v.1.15,2013-01-19 17:29:00,
2013-01-19 12:34:00,42.2,30.9,29.92,SSW,212,7.0,7.0,64,0.00,,,0.00,Wunderground v.1.15,2013-01-19 17:34:00,
2013-01-19 12:39:00,42.2,30.9,29.91,SSW,212,4.0,9.0,64,0.00,,,0.00,Wunderground v.1.15,2013-01-19 17:39:00,
2013-01-19 12:44:00,42.2,30.9,29.90,SW,236,7.0,7.0,64,0.00,,,0.00,Wunderground v.1.15,2013-01-19 17:44:00,
2013-01-19 12:49:00,42.4,31.1,29.90,SW,226,4.0,8.0,64,0.00,,,0.00,Wunderground v.1.15,2013-01-19 17:49:00,
2013-01-19 12:54:00,42.6,31.3,29.90,SSE,166,6.0,6.0,64,0.00,,,0.00,Wunderground v.1.15,2013-01-19 17:54:00,
2013-01-19 12:59:00,42.8,31.5,29.89,South,179,2.0,7.0,64,0.00,,,0.00,Wunderground v.1.15,2013-01-19 17:59:00,
2013-01-19 13:04:00,42.9,31.6,29.89,SSE,168,4.0,6.0,64,0.00,,,0.00,Wunderground v.1.15,2013-01-19 18:04:00,
2013-01-19 13:09:00,42.9,31.2,29.89,South,185,2.0,11.0,63,0.00,,,0.00,Wunderground v.1.15,2013-01-19 18:09:00,
2013-01-19 13:14:00,43.0,31.3,29.89,SW,219,5.0,8.0,63,0.00,,,0.00,Wunderground v.1.15,2013-01-19 18:14:00,
2013-01-19 13:19:00,43.1,31.4,29.89,SSE,167,5.0,9.0,63,0.00,,,0.00,Wunderground v.1.15,2013-01-19 18:19:00,
2013-01-19 13:25:00,43.2,31.4,29.88,SSE,161,5.0,13.0,63,0.00,,,0.00,Wunderground v.1.15,2013-01-19 18:25:00,
2013-01-19 13:30:00,43.3,31.5,29.87,SSE,161,3.0,5.0,63,0.00,,,0.00,Wunderground v.1.15,2013-01-19 18:30:00,
2013-01-19 13:35:00,43.6,31.8,29.87,SSW,212,3.0,8.0,63,0.00,,,0.00,Wunderground v.1.15,2013-01-19 18:35:00,
2013-01-19 13:40:00,43.9,31.7,29.87,SW,223,6.0,8.0,62,0.00,,,0.00,Wunderground v.1.15,2013-01-19 18:40:00,
2013-01-19 13:45:00,44.1,31.9,29.86,SW,215,4.0,9.0,62,0.00,,,0.00,Wunderground v.1.15,2013-01-19 18:45:00,
2013-01-19 13:50:00,44.5,32.3,29.86,SW,227,6.0,9.0,62,0.00,,,0.00,Wunderground v.1.15,2013-01-19 18:50:00,
2013-01-19 13:55:00,44.7,32.1,29.85,SSW,196,4.0,10.0,61,0.00,,,0.00,Wunderground v.1.15,2013-01-19 18:55:00,
2013-01-19 14:02:00,45.0,31.9,29.86,SSW,198,3.0,9.0,60,0.00,,,0.00,Wunderground v.1.15,2013-01-19 19:02:00,
2013-01-19 14:09:00,44.8,31.8,29.85,SSE,161,2.0,9.0,60,0.00,,,0.00,Wunderground v.1.15,2013-01-19 19:09:00,
2013-01-19 14:14:00,44.7,31.7,29.85,WSW,237,3.0,14.0,60,0.00,,,0.00,Wunderground v.1.15,2013-01-19 19:14:00,
2013-01-19 14:20:00,44.7,32.1,29.85,SSE,163,6.0,14.0,61,0.00,,,0.00,Wunderground v.1.15,2013-01-19 19:20:00,
2013-01-19 14:25:00,44.7,32.1,29.84,SSW,201,9.0,13.0,61,0.00,,,0.00,Wunderground v.1.15,2013-01-19 19:25:00,
2013-01-19 14:30:00,44.7,32.1,29.84,SSW,202,6.0,13.0,61,0.00,,,0.00,Wunderground v.1.15,2013-01-19 19:30:00,
2013-01-19 14:36:00,44.9,32.3,29.84,SW,229,1.0,11.0,61,0.00,,,0.00,Wunderground v.1.15,2013-01-19 19:36:00,
2013-01-19 14:41:00,45.1,32.4,29.84,SSW,192,7.0,8.0,61,0.00,,,0.00,Wunderground v.1.15,2013-01-19 19:41:00,
2013-01-19 14:46:00,45.5,32.4,29.83,SW,215,5.0,9.0,60,0.00,,,0.00,Wunderground v.1.15,2013-01-19 19:46:00,
2013-01-19 14:51:00,45.9,32.4,29.83,SW,221,3.0,8.0,59,0.00,,,0.00,Wunderground v.1.15,2013-01-19 19:51:00,
2013-01-19 14:57:00,46.2,32.7,29.83,South,182,7.0,12.0,59,0.00,,,0.00,Wunderground v.1.15,2013-01-19 19:57:00,
2013-01-19 15:02:00,46.2,32.7,29.83,SW,233,3.0,8.0,59,0.00,,,0.00,Wunderground v.1.15,2013-01-19 20:02:00,
2013-01-19 15:07:00,46.1,32.6,29.82,WSW,251,4.0,11.0,59,0.00,,,0.00,Wunderground v.1.15,2013-01-19 20:07:00,
2013-01-19 15:12:00,45.8,32.3,29.81,South,175,4.0,12.0,59,0.00,,,0.00,Wunderground v.1.15,2013-01-19 20:12:00,
2013-01-19 15:17:00,45.6,32.1,29.81,SSE,163,4.0,12.0,59,0.00,,,0.00,Wunderground v.1.15,2013-01-19 20:17:00,
2013-01-19 15:22:00,45.5,32.4,29.81,South,180,5.0,6.0,60,0.00,,,0.00,Wunderground v.1.15,2013-01-19 20:22:00,
2013-01-19 15:28:00,45.5,32.4,29.80,SW,228,3.0,7.0,60,0.00,,,0.00,Wunderground v.1.15,2013-01-19 20:28:00,
2013-01-19 15:33:00,45.5,32.4,29.80,SW,218,3.0,11.0,60,0.00,,,0.00,Wunderground v.1.15,2013-01-19 20:33:00,
2013-01-19 15:38:00,45.5,32.4,29.80,South,183,4.0,11.0,60,0.00,,,0.00,Wunderground v.1.15,2013-01-19 20:38:00,
2013-01-19 15:43:00,45.5,32.4,29.80,SSW,198,3.0,8.0,60,0.00,,,0.00,Wunderground v.1.15,2013-01-19 20:43:00,
2013-01-19 15:48:00,45.4,32.3,29.80,WSW,243,4.0,11.0,60,0.00,,,0.00,Wunderground v.1.15,2013-01-19 20:48:00,
2013-01-19 15:53:00,45.4,32.3,29.79,SSE,163,2.0,10.0,60,0.00,,,0.00,Wunderground v.1.15,2013-01-19 20:53:00,
2013-01-19 15:58:00,45.3,32.6,29.79,SSW,211,4.0,12.0,61,0.00,,,0.00,Wunderground v.1.15,2013-01-19 20:58:00,
2013-01-19 16:03:00,45.3,32.6,29.79,SSW,199,7.0,8.0,61,0.00,,,0.00,Wunderground v.1.15,2013-01-19 21:03:00,
2013-01-19 16:08:00,45.3,32.6,29.79,WSW,245,9.0,13.0,61,0.00,,,0.00,Wunderground v.1.15,2013-01-19 21:08:00,
2013-01-19 16:13:00,45.4,32.7,29.79,WSW,240,5.0,12.0,61,0.00,,,0.00,Wunderground v.1.15,2013-01-19 21:13:00,
2013-01-19 16:19:00,45.4,32.7,29.79,SSE,167,7.0,12.0,61,0.00,,,0.00,Wunderground v.1.15,2013-01-19 21:19:00,
2013-01-19 16:24:00,45.4,32.7,29.79,South,177,3.0,8.0,61,0.00,,,0.00,Wunderground v.1.15,2013-01-19 21:24:00,
2013-01-19 16:29:00,45.4,32.7,29.79,South,173,3.0,8.0,61,0.00,,,0.00,Wunderground v.1.15,2013-01-19 21:29:00,
2013-01-19 16:34:00,45.4,32.7,29.79,SW,232,4.0,9.0,61,0.00,,,0.00,Wunderground v.1.15,2013-01-19 21:34:00,
2013-01-19 16:40:00,45.4,33.1,29.79,SW,219,3.0,3.0,62,0.00,,,0.00,Wunderground v.1.15,2013-01-19 21:40:00,
2013-01-19 16:45:00,45.5,32.8,29.80,SW,217,3.0,13.0,61,0.00,,,0.00,Wunderground v.1.15,2013-01-19 21:45:00,
2013-01-19 16:51:00,45.5,33.2,29.79,South,186,5.0,6.0,62,0.00,,,0.00,Wunderground v.1.15,2013-01-19 21:51:00,
2013-01-19 16:56:00,45.4,33.1,29.79,South,171,3.0,6.0,62,0.00,,,0.00,Wunderground v.1.15,2013-01-19 21:56:00,
2013-01-19 17:02:00,45.3,33.0,29.79,SW,225,3.0,4.0,62,0.00,,,0.00,Wunderground v.1.15,2013-01-19 22:02:00,
2013-01-19 17:07:00,45.3,33.0,29.79,SW,232,6.0,10.0,62,0.00,,,0.00,Wunderground v.1.15,2013-01-19 22:07:00,
2013-01-19 17:13:00,45.2,32.9,29.79,South,179,3.0,5.0,62,0.00,,,0.00,Wunderground v.1.15,2013-01-19 22:13:00,
2013-01-19 17:18:00,45.2,33.3,29.79,WSW,252,3.0,8.0,63,0.00,,,0.00,Wunderground v.1.15,2013-01-19 22:18:00,
2013-01-19 17:23:00,45.3,33.4,29.79,South,169,3.0,8.0,63,0.00,,,0.00,Wunderground v.1.15,2013-01-19 22:23:00,
2013-01-19 17:28:00,45.4,33.5,29.79,South,190,2.0,10.0,63,0.00,,,0.00,Wunderground v.1.15,2013-01-19 22:28:00,
2013-01-19 17:33:00,45.2,33.3,29.79,SW,223,5.0,7.0,63,0.00,,,0.00,Wunderground v.1.15,2013-01-19 22:33:00,
2013-01-19 17:38:00,45.1,33.2,29.79,SW,231,6.0,9.0,63,0.00,,,0.00,Wunderground v.1.15,2013-01-19 22:38:00,
2013-01-19 17:43:00,45.1,33.2,29.77,SSE,160,3.0,9.0,63,0.00,,,0.00,Wunderground v.1.15,2013-01-19 22:43:00,
2013-01-19 17:48:00,45.2,33.3,29.77,WSW,254,4.0,12.0,63,0.00,,,0.00,Wunderground v.1.15,2013-01-19 22:48:00,
2013-01-19 17:54:00,45.2,33.3,29.77,SSW,204,7.0,7.0,63,0.00,,,0.00,Wunderground v.1.15,2013-01-19 22:54:00,
2013-01-19 17:59:00,45.1,33.2,29.77,SW,226,7.0,14.0,63,0.00,,,0.00,Wunderground v.1.15,2013-01-19 22:59:00,
2013-01-19 18:05:00,45.1,33.2,29.76,South,181,5.0,11.0,63,0.00,,,0.00,Wunderground v.1.15,2013-01-19 23:05:00,
2013-01-19 18:11:00,45.1,33.6,29.76,South,169,5.0,5.0,64,0.00,,,0.00,Wunderground v.1.15,2013-01-19 23:11:00,
2013-01-19 18:16:00,45.0,33.5,29.76,SW,226,6.0,10.0,64,0.00,,,0.00,Wunderground v.1.15,2013-01-19 23:16:00,
2013-01-19 18:21:00,45.0,33.5,29.75,South,187,4.0,8.0,64,0.00,,,0.00,Wunderground v.1.15,2013-01-19 23:21:00,
2013-01-19 18:26:00,44.8,33.4,29.75,SSW,206,5.0,11.0,64,0.00,,,0.00,Wunderground v.1.15,2013-01-19 23:26:00,
2013-01-19 18:31:00,44.8,33.4,29.74,South,170,11.0,12.0,64,0.00,,,0.00,Wunderground v.1.15,2013-01-19 23:31:00,
2013-01-19 18:36:00,44.7,33.3,29.73,SW,219,4.0,12.0,64,0.00,,,0.00,Wunderground v.1.15,2013-01-19 23:36:00,
2013-01-19 18:42:00,44.5,33.5,29.73,SSW,207,6.0,10.0,65,0.00,,,0.00,Wunderground v.1.15,2013-01-19 23:42:00,
2013-01-19 18:47:00,44.5,33.5,29.73,SW,228,5.0,13.0,65,0.00,,,0.00,Wunderground v.1.15,2013-01-19 23:47:00,
2013-01-19 18:52:00,44.3,33.3,29.73,South,178,6.0,13.0,65,0.00,,,0.00,Wunderground v.1.15,2013-01-19 23:52:00,
2013-01-19 18:57:00,44.2,33.6,29.75,SSW,206,4.0,13.0,66,0.00,,,0.00,Wunderground v.1.15,2013-01-19 23:57:00,
2013-01-19 19:03:00,44.3,33.7,29.75,SSW,194,7.0,11.0,66,0.00,,,0.00,Wunderground v.1.15,2013-01-20 00:03:00,
2013-01-19 19:08:00,44.2,33.6,29.75,SSW,200,4.0,13.0,66,0.00,,,0.00,Wunderground v.1.15,2013-01-20 00:08:00,
2013-01-19 19:13:00,44.3,33.7,29.76,SSW,207,8.0,15.0,66,0.00,,,0.00,Wunderground v.1.15,2013-01-20 00:13:00,
2013-01-19 19:18:00,44.2,33.6,29.75,SW,219,4.0,15.0,66,0.00,,,0.00,Wunderground v.1.15,2013-01-20 00:18:00,
2013-01-19 19:23:00,44.2,33.6,29.75,SW,222,4.0,12.0,66,0.00,,,0.00,Wunderground v.1.15,2013-01-20 00:23:00,
2013-01-19 19:28:00,44.3,33.7,29.75,SSW,192,7.0,12.0,66,0.00,,,0.00,Wunderground v.1.15,2013-01-20 00:28:00,
2013-01-19 19:33:00,44.3,33.7,29.75,SW,232,7.0,19.0,66,0.00,,,0.00,Wunderground v.1.15,2013-01-20 00:33:00,
2013-01-19 19:39:00,44.2,33.9,29.74,SW,217,4.0,19.0,67,0.00,,,0.00,Wunderground v.1.15,2013-01-20 00:39:00,
2013-01-19 19:44:00,44.2,33.9,29.74,SSW,201,9.0,11.0,67,0.00,,,0.00,Wunderground v.1.15,2013-01-20 00:44:00,
2013-01-19 19:49:00,44.1,33.8,29.73,South,172,5.0,13.0,67,0.00,,,0.00,Wunderground v.1.15,2013-01-20 00:49:00,
2013-01-19 19:55:00,44.1,33.8,29.73,SW,217,5.0,9.0,67,0.00,,,0.00,Wunderground v.1.15,2013-01-20 00:55:00,
2013-01-19 20:00:00,43.9,33.6,29.72,SSW,207,6.0,11.0,67,0.00,,,0.00,Wunderground v.1.15,2013-01-20 01:00:00,
2013-01-19 20:05:00,43.9,34.0,29.72,WSW,244,5.0,9.0,68,0.00,,,0.00,Wunderground v.1.15,2013-01-20 01:05:00,
2013-01-19 20:10:00,43.8,33.9,29.72,SSW,212,6.0,6.0,68,0.00,,,0.00,Wunderground v.1.15,2013-01-20 01:10:00,
2013-01-19 20:15:00,43.7,33.8,29.71,WSW,258,5.0,9.0,68,0.00,,,0.00,Wunderground v.1.15,2013-01-20 01:15:00,
2013-01-19 20:20:00,43.6,33.7,29.71,SSE,161,10.0,10.0,68,0.00,,,0.00,Wunderground v.1.15,2013-01-20 01:20:00,
2013-01-19 20:25:00,43.5,34.0,29.71,West,259,4.0,11.0,69,0.00,,,0.00,Wunderground v.1.15,2013-01-20 01:25:00,
2013-01-19 20:30:00,43.4,33.9,29.70,WSW,240,8.0,8.0,69,0.00,,,0.00,Wunderground v.1.15,2013-01-20 01:30:00,
2013-01-19 20:35:00,43.3,33.8,29.71,SW,220,4.0,10.0,69,0.00,,,0.00,Wunderground v.1.15,2013-01-20 01:35:00,
2013-01-19 20:40:00,43.3,33.8,29.70,SW,227,6.0,8.0,69,0.00,,,0.00,Wunderground v.1.15,2013-01-20 01:40:00,
2013-01-19 20:45:00,43.2,34.1,29.70,SW,229,4.0,8.0,70,0.00,,,0.00,Wunderground v.1.15,2013-01-20 01:45:00,
2013-01-19 20:51:00,43.2,34.1,29.69,WNW,295,10.0,10.0,70,0.00,,,0.00,Wunderground v.1.15,2013-01-20 01:51:00,
2013-01-19 20:56:00,43.1,34.0,29.69,SW,219,3.0,10.0,70,0.00,,,0.00,Wunderground v.1.15,2013-01-20 01:56:00,
2013-01-19 21:01:00,43.0,33.9,29.69,South,178,3.0,7.0,70,0.00,,,0.00,Wunderground v.1.15,2013-01-20 02:01:00,
2013-01-19 21:06:00,42.9,34.1,29.69,WSW,244,10.0,10.0,71,0.00,,,0.00,Wunderground v.1.15,2013-01-20 02:06:00,
2013-01-19 21:12:00,42.8,34.0,29.68,SSW,211,4.0,5.0,71,0.00,,,0.00,Wunderground v.1.15,2013-01-20 02:12:00,
2013-01-19 21:17:00,42.8,34.0,29.68,SW,223,1.0,10.0,71,0.00,,,0.00,Wunderground v.1.15,2013-01-20 02:17:00,
2013-01-19 21:22:00,42.7,33.9,29.67,South,190,2.0,9.0,71,0.00,,,0.00,Wunderground v.1.15,2013-01-20 02:22:00,
2013-01-19 21:28:00,42.7,34.3,29.67,SW,220,5.0,13.0,72,0.00,,,0.00,Wunderground v.1.15,2013-01-20 02:28:00,
2013-01-19 21:33:00,42.6,34.2,29.67,WSW,246,5.0,7.0,72,0.00,,,0.00,Wunderground v.1.15,2013-01-20 02:33:00,
2013-01-19 21:38:00,42.5,34.1,29.67,WSW,257,3.0,9.0,72,0.00,,,0.00,Wunderground v.1.15,2013-01-20 02:38:00,
2013-01-19 21:43:00,42.5,34.1,29.67,SW,234,3.0,8.0,72,0.00,,,0.00,Wunderground v.1.15,2013-01-20 02:43:00,
2013-01-19 21:48:00,42.4,34.0,29.67,SW,233,4.0,8.0,72,0.00,,,0.00,Wunderground v.1.15,2013-01-20 02:48:00,
2013-01-19 21:53:00,42.4,34.4,29.67,SW,227,6.0,9.0,73,0.00,,,0.00,Wunderground v.1.15,2013-01-20 02:53:00,
2013-01-19 21:58:00,42.4,34.4,29.66,West,262,4.0,9.0,73,0.00,,,0.00,Wunderground v.1.15,2013-01-20 02:58:00,
2013-01-19 22:03:00,42.3,34.3,29.66,SW,224,1.0,7.0,73,0.00,,,0.00,Wunderground v.1.15,2013-01-20 03:03:00,
2013-01-19 22:08:00,42.2,34.2,29.65,SW,224,2.0,7.0,73,0.00,,,0.00,Wunderground v.1.15,2013-01-20 03:08:00,
2013-01-19 22:14:00,42.2,34.5,29.66,WSW,238,4.0,10.0,74,0.00,,,0.00,Wunderground v.1.15,2013-01-20 03:14:00,
2013-01-19 22:19:00,42.2,34.5,29.66,WSW,241,4.0,10.0,74,0.00,,,0.00,Wunderground v.1.15,2013-01-20 03:19:00,
2013-01-19 22:24:00,42.3,34.6,29.66,SSW,194,2.0,8.0,74,0.00,,,0.00,Wunderground v.1.15,2013-01-20 03:24:00,
2013-01-19 22:29:00,42.4,34.7,29.65,SSW,211,4.0,10.0,74,0.00,,,0.00,Wunderground v.1.15,2013-01-20 03:29:00,
2013-01-19 22:34:00,42.5,34.8,29.65,WSW,249,5.0,7.0,74,0.00,,,0.00,Wunderground v.1.15,2013-01-20 03:34:00,
2013-01-19 22:39:00,42.7,35.0,29.65,WSW,257,4.0,8.0,74,0.00,,,0.00,Wunderground v.1.15,2013-01-20 03:39:00,
2013-01-19 22:44:00,43.0,35.3,29.65,NW,317,7.0,9.0,74,0.00,,,0.00,Wunderground v.1.15,2013-01-20 03:44:00,
2013-01-19 22:49:00,43.3,35.6,29.64,WSW,252,5.0,13.0,74,0.00,,,0.00,Wunderground v.1.15,2013-01-20 03:49:00,
2013-01-19 22:54:00,43.5,35.4,29.64,NW,317,9.0,9.0,73,0.00,,,0.00,Wunderground v.1.15,2013-01-20 03:54:00,
2013-01-19 22:59:00,43.6,35.5,29.63,NW,309,4.0,16.0,73,0.00,,,0.00,Wunderground v.1.15,2013-01-20 03:59:00,
2013-01-19 23:04:00,43.9,35.8,29.63,SSW,205,10.0,16.0,73,0.00,,,0.00,Wunderground v.1.15,2013-01-20 04:04:00,
2013-01-19 23:09:00,44.0,35.6,29.63,West,260,11.0,16.0,72,0.00,,,0.00,Wunderground v.1.15,2013-01-20 04:09:00,
2013-01-19 23:14:00,43.9,35.8,29.63,WSW,250,7.0,10.0,73,0.00,,,0.00,Wunderground v.1.15,2013-01-20 04:14:00,
2013-01-19 23:19:00,43.9,35.5,29.62,WSW,240,5.0,15.0,72,0.00,,,0.00,Wunderground v.1.15,2013-01-20 04:19:00,
2013-01-19 23:24:00,43.8,35.4,29.62,SW,227,3.0,14.0,72,0.00,,,0.00,Wunderground v.1.15,2013-01-20 04:24:00,
2013-01-19 23:29:00,43.6,35.5,29.62,NW,319,8.0,14.0,73,0.00,,,0.00,Wunderground v.1.15,2013-01-20 04:29:00,
2013-01-19 23:34:00,43.4,35.3,29.61,SW,229,3.0,8.0,73,0.00,,,0.00,Wunderground v.1.15,2013-01-20 04:34:00,
2013-01-19 23:39:00,43.3,35.2,29.61,WNW,294,12.0,12.0,73,0.00,,,0.00,Wunderground v.1.15,2013-01-20 04:39:00,
2013-01-19 23:44:00,43.2,35.1,29.61,West,267,6.0,13.0,73,0.00,,,0.00,Wunderground v.1.15,2013-01-20 04:44:00,
2013-01-19 23:49:00,43.3,35.2,29.61,West,274,4.0,13.0,73,0.00,,,0.00,Wunderground v.1.15,2013-01-20 04:49:00,
2013-01-19 23:54:00,43.3,35.2,29.61,SW,222,5.0,16.0,73,0.00,,,0.00,Wunderground v.1.15,2013-01-20 04:54:00,